Regional Weather Roundup
Issued by NWS

Home | Current Version | Previous Version | Graphics & Text | Print | Product List | Glossary On
Versions: 1 2 3 4 5 6 7 8 9 10 11 12 13 14 15 16 17 18 19 20 21 22 23 24 25 26 27 28 29 30 31 32 33 34 35 36 37 38 39 40 41 42 43 44 45 46 47 48 49 50
546
ASUS45 KBOI 150410
RWRID

IDAHO REGIONAL WEATHER ROUNDUP
NATIONAL WEATHER SERVICE BOISE ID
900 PM MST THU DEC 14 2017

NOTE: "FAIR" INDICATES FEW OR NO CLOUDS BELOW 12000 FEET
WITH NO SIGNIFICANT WEATHER AND/OR OBSTRUCTIONS TO VISIBILITY

IDZ012-014-150500-
SOUTHWEST IDAHO


CITY           SKY/WX    TMP DP  RH WIND       PRES   REMARKS
BOISE          CLOUDY    27  23  85 SE5       30.48F WCI  22
CALDWELL       CLOUDY    28  24  85 E7        30.50F WCI  21
MOUNTAIN HOME  CLOUDY    27  27 100 E3        30.48S FOG
$$

IDZ016-017-150500-
SOUTHCENTRAL IDAHO


CITY           SKY/WX    TMP DP  RH WIND       PRES   REMARKS
BURLEY         FOG       24  21  88 NE5       30.41S VSB 1/2 WCI  18
JEROME         FOG       28  24  85 E3        30.42F VSB 1/4
TWIN FALLS     FOG       25  25 100 CALM      30.41F VSB 1/4
$$

IDZ019>023-150500-
SOUTHEAST IDAHO


CITY           SKY/WX    TMP DP  RH WIND       PRES   REMARKS
IDAHO FALLS    FOG       20  19  96 NE6       30.42F VSB 1/2 WCI  12
POCATELLO      FOG       23  21  92 N5        30.41F VSB 1/4 WCI  17
REXBURG        CLOUDY    17  15  92 E5        30.38F FOG     WCI  10
$$

IDZ006-010-011-018-031-032-150500-
CENTRAL IDAHO MOUNTAINS


CITY           SKY/WX    TMP DP  RH WIND       PRES   REMARKS
MCCALL         MOCLDY    19  15  84 CALM      30.34F FOG
HAILEY         CLEAR     25  21  86 NW7       30.37F WCI  17
STANLEY          N/A     11   7  84 S3        30.39R
SALMON         CLOUDY    28  25  88 W5        30.42F WCI  23
CHALLIS        CLOUDY    28  22  78 S3        30.39S
$$

IDZ002-004-006-007-026-150500-
NORTHERN IDAHO


CITY           SKY/WX    TMP DP  RH WIND       PRES   REMARKS
LEWISTON       CLEAR     30  27  88 NE3       30.40F
LOWELL           N/A     32  31  96 CALM      30.45F
COEUR D`ALENE  CLOUDY    31  28  89 CALM      30.37S
MULLAN PASS    MOCLDY    26  22  84 S7        30.23F WCI  18
$$




USA.gov is the U.S. government's official web portal to all federal, state and local government web resources and services.